Location: T�chigga el Be�da
(16.4766°N, 9.3887°W)
Time: 13:51:49
(UTC+00:00)

Cosmos 1656 - Pass Details

Date: 27 February 2020
Orbit: 797 x 851 km, 71.1° (Epoch: 29 March)

Event Time Altitude Azimuth Distance (km) Brightness Sun altitude
Rises 19:51:25 0° 186° (S) 3,293 6.9 -16.9°
Reaches altitude 10° 19:53:51 10° 182° (S) 2,369 6.1 -17.5°
Maximum altitude 19:59:08 55° 105° (ESE) 960 3.6 -18.8°
Enters shadow 20:03:03 18° 32° (NNE) 1,878 5.2 -19.7°
